Вернуться в каталог

FENGYUN 1C DEB

АктивенSSO
NORAD 30071·DEBRIS·🇨🇳 China

Запущен May 10, 1999 с Taiyuan Satellite Launch Center

Loading…

Ближайшие Пролёты (ближайшие 24 часа)

TLE

СвежийSource: Space-Track

Эпоха: Sep 14, 2026, 13:46 UTC

1 30071U 99025PY  26257.57424295  .00005021  00000-0  11210-2 0  9991
2 30071  98.6653  11.6389 0034937 346.8072 141.3568 14.56887596 22353

Отслеживайте FENGYUN 1C DEB в реальном времени с AllMySat

Download on the App Store